• In Portugal
  • List of Countries
  • For 7 days
  • Water Temperature
  • Satellite Maps
  • Weather Map
  • Weather Widgets
  • user-avatar
    Login

    Hourly Weather Rundu

    Today, 17 July, Tuesday

    Time Temperature Precipitation Wind Pressure Humidity
    00:00 +16°C° 0 mm 3 mps 673 mmHg 48%
    01:00 +13°C° 0 mm 3 mps 673 mmHg 52%
    02:00 +13°C° 0 mm 3 mps 673 mmHg 55%
    03:00 +12°C° 0 mm 3 mps 672 mmHg 58%
    04:00 +12°C° 0 mm 3 mps 672 mmHg 61%
    05:00 +12°C° 0 mm 3 mps 672 mmHg 62%
    06:00 +12°C° 0 mm 3 mps 673 mmHg 64%
    07:00 +12°C° 0 mm 4 mps 673 mmHg 62%
    08:00 +15°C° 0 mm 4 mps 674 mmHg 54%
    09:00 +17°C° 0 mm 5 mps 674 mmHg 46%
    10:00 +21°C° 0 mm 5 mps 675 mmHg 38%
    11:00 +22°C° 0 mm 5 mps 675 mmHg 35%
    12:00 +23°C° 0 mm 5 mps 674 mmHg 31%
    13:00 +25°C° 0 mm 4 mps 674 mmHg 28%
    14:00 +25°C° 0 mm 4 mps 673 mmHg 27%
    15:00 +25°C° 0 mm 4 mps 673 mmHg 27%
    16:00 +25°C° 0 mm 4 mps 672 mmHg 27%
    17:00 +21°C° 0 mm 4 mps 672 mmHg 32%
    18:00 +19°C° 0 mm 3 mps 672 mmHg 38%
    19:00 +17°C° 0 mm 3 mps 672 mmHg 43%
    20:00 +16°C° 0 mm 3 mps 672 mmHg 45%
    21:00 +14°C° 0 mm 3 mps 673 mmHg 47%
    22:00 +14°C° 0 mm 3 mps 673 mmHg 50%
    23:00 +13°C° 0 mm 3 mps 673 mmHg 52%

    Tomorrow, 18 July, Wednesday

    Time Temperature Precipitation Wind Pressure Humidity
    00:00 +12°C° 0 mm 3 mps 673 mmHg 54%
    01:00 +12°C° 0 mm 3 mps 673 mmHg 56%
    02:00 +11°C° 0 mm 3 mps 673 mmHg 58%
    03:00 +10°C° 0 mm 3 mps 672 mmHg 61%
    04:00 +10°C° 0 mm 3 mps 672 mmHg 63%
    05:00 +10°C° 0 mm 3 mps 673 mmHg 63%
    06:00 +10°C° 0 mm 3 mps 673 mmHg 64%
    07:00 +10°C° 0 mm 3 mps 673 mmHg 64%
    08:00 +13°C° 0 mm 4 mps 674 mmHg 55%
    09:00 +17°C° 0 mm 4 mps 674 mmHg 46%
    10:00 +20°C° 0 mm 5 mps 675 mmHg 37%
    11:00 +21°C° 0 mm 5 mps 675 mmHg 34%
    12:00 +23°C° 0 mm 5 mps 674 mmHg 30%
    13:00 +25°C° 0 mm 4 mps 674 mmHg 27%
    14:00 +25°C° 0 mm 4 mps 673 mmHg 28%
    15:00 +25°C° 0 mm 4 mps 673 mmHg 28%
    16:00 +23°C° 0 mm 4 mps 672 mmHg 29%
    17:00 +21°C° 0 mm 3 mps 672 mmHg 34%
    18:00 +19°C° 0 mm 3 mps 672 mmHg 40%
    19:00 +16°C° 0 mm 2 mps 672 mmHg 46%
    20:00 +15°C° 0 mm 2 mps 672 mmHg 48%
    21:00 +15°C° 0 mm 2 mps 672 mmHg 51%
    22:00 +14°C° 0 mm 2 mps 673 mmHg 54%
    23:00 +13°C° 0 mm 2 mps 672 mmHg 56%

    Day after tomorrow, 19 July, Thursday

    Time Temperature Precipitation Wind Pressure Humidity
    00:00 +13°C° 0 mm 2 mps 672 mmHg 58%
    01:00 +12°C° 0 mm 2 mps 672 mmHg 60%
    02:00 +12°C° 0 mm 2 mps 672 mmHg 61%
    03:00 +10°C° 0 mm 2 mps 672 mmHg 63%
    04:00 +10°C° 0 mm 2 mps 671 mmHg 65%
    05:00 +10°C° 0 mm 3 mps 672 mmHg 65%
    06:00 +10°C° 0 mm 3 mps 672 mmHg 64%
    07:00 +10°C° 0 mm 3 mps 672 mmHg 64%
    08:00 +13°C° 0 mm 4 mps 673 mmHg 55%
    09:00 +17°C° 0 mm 4 mps 674 mmHg 47%
    10:00 +20°C° 0 mm 5 mps 675 mmHg 39%
    11:00 +22°C° 0 mm 5 mps 674 mmHg 35%
    12:00 +23°C° 0 mm 4 mps 674 mmHg 32%
    13:00 +25°C° 0 mm 4 mps 673 mmHg 29%
    14:00 +25°C° 0 mm 4 mps 672 mmHg 28%
    15:00 +25°C° 0 mm 3 mps 672 mmHg 28%
    16:00 +25°C° 0 mm 3 mps 671 mmHg 28%
    17:00 +21°C° 0 mm 3 mps 671 mmHg 33%
    18:00 +19°C° 0 mm 2 mps 671 mmHg 38%
    19:00 +17°C° 0 mm 2 mps 671 mmHg 44%
    20:00 +16°C° 0 mm 2 mps 671 mmHg 46%
    21:00 +15°C° 0 mm 2 mps 672 mmHg 48%
    22:00 +14°C° 0 mm 2 mps 672 mmHg 50%
    23:00 +13°C° 0 mm 2 mps 671 mmHg 52%

    20 July, Friday

    Time Temperature Precipitation Wind Pressure Humidity
    00:00 +13°C° 0 mm 2 mps 671 mmHg 54%
    01:00 +12°C° 0 mm 2 mps 671 mmHg 57%
    02:00 +10°C° 0 mm 2 mps 671 mmHg 58%
    03:00 +10°C° 0 mm 2 mps 670 mmHg 60%
    04:00 +9°C° 0 mm 2 mps 670 mmHg 62%
    05:00 +9°C° 0 mm 2 mps 671 mmHg 61%
    06:00 +10°C° 0 mm 2 mps 671 mmHg 61%
    07:00 +10°C° 0 mm 2 mps 672 mmHg 60%
    08:00 +13°C° 0 mm 3 mps 672 mmHg 52%
    09:00 +17°C° 0 mm 4 mps 673 mmHg 44%
    10:00 +21°C° 0 mm 4 mps 674 mmHg 36%
    11:00 +22°C° 0 mm 4 mps 673 mmHg 32%
    12:00 +25°C° 0 mm 4 mps 672 mmHg 28%
    13:00 +26°C° 0 mm 3 mps 672 mmHg 25%
    14:00 +26°C° 0 mm 3 mps 671 mmHg 24%
    15:00 +26°C° 0 mm 3 mps 671 mmHg 24%
    16:00 +26°C° 0 mm 3 mps 670 mmHg 23%
    17:00 +22°C° 0 mm 3 mps 670 mmHg 29%
    18:00 +20°C° 0 mm 3 mps 670 mmHg 34%
    19:00 +17°C° 0 mm 2 mps 670 mmHg 40%
    20:00 +16°C° 0 mm 2 mps 670 mmHg 42%
    21:00 +15°C° 0 mm 2 mps 671 mmHg 45%
    22:00 +14°C° 0 mm 2 mps 671 mmHg 47%
    23:00 +14°C° 0 mm 2 mps 671 mmHg 49%

    21 July, Saturday

    Time Temperature Precipitation Wind Pressure Humidity
    00:00 +13°C° 0 mm 2 mps 670 mmHg 51%
    01:00 +12°C° 0 mm 2 mps 670 mmHg 53%
    02:00 +12°C° 0 mm 2 mps 670 mmHg 55%
    03:00 +10°C° 0 mm 2 mps 670 mmHg 57%
    04:00 +10°C° 0 mm 2 mps 670 mmHg 58%
    05:00 +10°C° 0 mm 2 mps 671 mmHg 58%
    06:00 +10°C° 0 mm 2 mps 671 mmHg 58%
    07:00 +10°C° 0 mm 2 mps 672 mmHg 58%
    08:00 +14°C° 0 mm 3 mps 672 mmHg 50%
    09:00 +19°C° 0 mm 4 mps 673 mmHg 41%
    10:00 +22°C° 0 mm 5 mps 674 mmHg 33%
    11:00 +25°C° 0 mm 5 mps 673 mmHg 29%
    12:00 +26°C° 0 mm 4 mps 673 mmHg 26%
    13:00 +27°C° 0 mm 4 mps 672 mmHg 23%
    14:00 +27°C° 0 mm 4 mps 672 mmHg 23%
    15:00 +27°C° 0 mm 4 mps 671 mmHg 23%
    16:00 +27°C° 0 mm 4 mps 671 mmHg 22%
    17:00 +24°C° 0 mm 3 mps 671 mmHg 27%
    18:00 +20°C° 0 mm 3 mps 671 mmHg 32%
    19:00 +18°C° 0 mm 2 mps 671 mmHg 36%
    20:00 +17°C° 0 mm 2 mps 671 mmHg 39%
    21:00 +16°C° 0 mm 2 mps 671 mmHg 41%
    22:00 +15°C° 0 mm 2 mps 672 mmHg 44%
    23:00 +14°C° 0 mm 2 mps 672 mmHg 46%

    22 July, Sunday

    Time Temperature Precipitation Wind Pressure Humidity
    00:00 +14°C° 0 mm 2 mps 671 mmHg 49%
    01:00 +13°C° 0 mm 2 mps 671 mmHg 51%
    02:00 +13°C° 0 mm 2 mps 671 mmHg 53%
    03:00 +13°C° 0 mm 2 mps 671 mmHg 55%
    04:00 +11°C° 0 mm 3 mps 671 mmHg 57%
    05:00 +11°C° 0 mm 3 mps 671 mmHg 58%
    06:00 +12°C° 0 mm 3 mps 672 mmHg 58%
    07:00 +12°C° 0 mm 3 mps 672 mmHg 59%
    08:00 +15°C° 0 mm 4 mps 673 mmHg 49%
    09:00 +20°C° 0 mm 4 mps 674 mmHg 40%
    10:00 +23°C° 0 mm 5 mps 674 mmHg 30%
    11:00 +26°C° 0 mm 5 mps 674 mmHg 27%
    12:00 +27°C° 0 mm 4 mps 673 mmHg 23%
    13:00 +28°C° 0 mm 4 mps 673 mmHg 20%
    14:00 +28°C° 0 mm 4 mps 672 mmHg 20%
    15:00 +28°C° 0 mm 4 mps 672 mmHg 20%
    16:00 +28°C° 0 mm 4 mps 671 mmHg 20%
    17:00 +25°C° 0 mm 4 mps 671 mmHg 25%
    18:00 +21°C° 0 mm 3 mps 671 mmHg 30%
    19:00 +18°C° 0 mm 2 mps 671 mmHg 35%
    20:00 +18°C° 0 mm 2 mps 672 mmHg 38%
    21:00 +17°C° 0 mm 2 mps 672 mmHg 41%
    22:00 +16°C° 0 mm 2 mps 672 mmHg 43%
    23:00 +15°C° 0 mm 2 mps 672 mmHg 46%
    Show more